Wetbulb
41.93 36.54 35.30 39.02 39.97 39.37 36.36 35.16 33.92 39.85 42.23 39.91 39.99 40.60 42.23 43.98 41.70 40.83 43.94 44.65 43.43 45.15 47.45 44.37 45.81 45.64 45.07 42.67 40.78 39.79 39.21 39.16 39.40 37.76 36.53 35.37 36.04 34.31 33.19 33.70 35.04 34.56 34.28 34.04
38.63 35.70 40.84 41.50 40.64 39.76 38.08 36.57 35.20 39.18 41.17 38.78 37.94 38.73 42.53 41.41 43.34 44.39 43.89 43.28 44.39 45.37 42.80 43.85 42.99 43.53 43.43 40.76 40.41 39.76 39.48 38.83 39.57 39.09 38.57 35.37 34.63 33.59 33.76 33.95 34.01 34.44 33.45 33.05
37.53 38.95 43.52 41.91 40.15 38.29 38.38 35.90 36.94 36.44 38.72 37.19 35.63 34.07 37.29 40.77 43.00 43.89 45.55 45.68 45.97 45.74 42.09 42.28 41.35 42.55 42.11 40.35 39.74 39.68 39.34 38.77 39.47 38.61 37.18 33.57 33.64 32.68 32.12 32.25 32.61 32.93 33.08 32.62
37.38 42.15 40.98 38.41 37.87 39.83 36.13 39.09 38.36 36.59 32.70 31.61 34.88 30.46 34.79 38.38 39.56 40.86 43.71 43.79 44.64 42.86 41.66 41.78 41.22 41.37 40.70 40.75 40.38 40.08 39.27 38.34 39.00 37.69 36.96 36.15 35.04 34.16 35.48 35.29 33.36 31.66 32.46 31.62
36.98 36.82 36.78 37.29 39.28 39.37 38.54 38.89 37.19 34.40 31.89 30.16 32.00 29.46 32.49 38.24 36.07 39.03 41.97 43.62 44.14 43.00 40.44 40.06 41.01 42.32 42.03 40.57 39.82 39.47 38.67 38.14 38.38 37.05 37.79 36.51 34.84 34.99 29.93 30.09 31.08 31.17 30.82 31.09
37.13 38.46 38.78 38.63 37.23 38.70 38.03 34.96 33.59 31.46 29.65 26.36 30.77 31.56 31.81 33.16 37.63 38.33 42.41 43.51 43.72 43.39 40.44 40.92 41.93 41.86 40.03 38.37 38.90 38.11 37.31 37.36 37.69 37.27 37.17 36.14 35.16 30.93 28.91 30.11 30.67 30.76 30.10 29.20
34.10 36.51 38.75 39.46 35.52 35.49 35.16 32.21 24.88 22.58 21.05 25.60 32.97 29.29 35.97 37.35 38.38 40.04 41.52 42.54 43.36 40.89 40.04 38.11 37.76 39.21 38.07 36.77 37.17 37.74 36.81 36.64 37.09 36.84 36.33 35.35 35.21 32.11 31.48 30.43 31.21 29.62 28.71 27.93
29.63 30.76 35.31 38.02 38.70 34.72 32.38 35.09 25.43 18.28 22.00 29.17 27.77 25.36 32.09 39.98 42.44 41.33 41.90 42.49 40.34 40.05 39.92 39.42 39.84 39.42 38.18 37.96 36.59 37.38 36.23 36.66 36.51 36.26 36.03 35.30 34.11 33.17 33.07 31.07 31.27 30.54 30.19 29.37
30.52 30.87 34.86 35.61 36.07 38.57 32.05 29.93 36.06 28.88 15.72 20.12 31.63 32.73 37.06 37.21 38.66 38.62 39.29 37.24 38.25 38.91 38.59 38.61 37.17 37.66 37.28 37.15 36.89 36.85 36.32 36.95 36.29 36.01 35.96 34.65 33.83 33.58 32.66 30.79 29.96 30.38 29.08 28.18
36.57 31.29 35.89 33.93 33.85 33.68 33.62 34.94 27.56 27.82 19.28 16.26 29.14 29.55 33.29 36.56 38.99 40.29 37.37 37.19 37.32 37.83 38.26 38.32 37.71 38.23 37.11 36.90 37.29 37.01 37.26 36.45 36.34 35.59 35.70 34.47 33.43 33.43 32.78 29.78 28.83 27.62 27.39 26.66
36.98 34.65 34.77 31.94 30.92 31.87 29.88 30.46 31.74 31.46 29.08 27.04 25.10 30.28 34.41 35.63 36.58 37.99 38.29 37.65 36.91 37.63 37.52 37.92 38.87 38.26 36.43 35.67 36.06 36.23 35.76 35.22 35.01 33.70 33.95 33.36 32.20 31.38 29.74 29.44 28.78 27.42 26.38 25.34
37.30 33.98 29.26 32.19 35.46 35.17 35.10 34.95 35.22 29.42 27.66 27.35 28.94 30.41 42.04 40.12 37.20 38.22 38.34 38.58 38.26 38.33 39.03 38.38 37.95 36.94 35.08 36.40 35.85 35.30 35.27 34.68 34.67 34.26 32.43 31.77 29.98 28.43 28.35 28.14 26.60 25.25 25.17 23.99
38.45 31.84 27.80 28.87 34.16 32.03 31.51 33.16 34.73 34.54 31.11 28.43 25.12 28.09 42.03 41.23 38.26 36.31 37.11 37.32 37.78 38.91 40.12 39.30 37.47 36.41 37.90 36.87 35.88 35.54 35.10 34.69 34.30 33.52 30.86 30.23 28.34 27.85 27.95 26.70 24.58 24.47 23.22 22.53
41.04 33.21 31.12 28.13 31.99 34.99 31.32 32.39 32.44 33.29 28.67 29.00 28.96 31.07 36.40 39.09 40.34 42.14 42.99 43.72 44.34 41.40 39.67 39.10 38.78 36.61 35.43 35.69 35.86 35.58 35.08 34.70 33.42 32.02 30.28 29.21 28.35 28.18 27.24 24.59 24.27 23.63 23.47 21.80
38.76 31.22 33.18 33.75 34.92 35.68 34.05 33.90 34.56 32.07 33.06 29.46 31.46 31.52 35.05 37.95 39.21 40.69 42.44 42.94 40.64 40.73 39.92 39.24 38.43 38.32 37.73 36.81 35.99 35.77 35.76 33.25 32.23 31.13 29.94 29.29 28.41 27.06 23.92 23.17 23.34 22.76 21.68 20.88
37.74 32.34 34.47 31.72 33.80 33.44 31.94 33.80 33.85 33.88 33.73 33.56 33.80 33.47 40.57 42.19 43.02 42.40 43.00 43.27 41.40 41.73 42.66 42.57 39.03 38.60 36.37 35.07 36.73 34.75 34.78 31.93 31.49 30.87 29.39 28.55 25.63 23.56 22.91 23.09 22.16 21.14 20.20 19.48
35.40 32.85 31.71 27.89 32.42 31.47 27.60 32.31 33.26 33.92 35.53 35.23 30.75 35.46 39.91 39.36 40.42 41.15 41.94 42.85 42.07 42.77 42.57 39.76 38.74 38.24 36.94 34.17 34.39 32.95 33.19 30.10 30.31 30.12 28.59 25.51 24.00 22.41 22.33 21.81 20.69 19.99 19.27 19.35
34.06 32.80 32.14 29.16 31.07 21.94 31.74 36.75 35.99 34.31 35.81 37.07 37.05 38.51 40.06 40.51 42.06 42.84 43.66 42.39 42.47 42.59 40.74 38.97 37.02 37.89 35.24 34.51 32.32 31.77 27.77 28.81 29.15 28.25 25.91 23.23 22.48 21.82 20.77 19.78 19.47 18.64 18.46 17.94
37.78 34.14 30.02 27.27 27.06 29.87 32.07 34.54 34.06 32.24 32.13 37.57 36.52 38.34 40.19 41.43 41.26 40.85 42.39 39.31 40.58 41.42 40.44 38.99 37.00 35.88 35.43 34.14 31.80 27.90 26.06 26.87 26.86 25.31 24.34 22.24 21.98 20.50 19.22 18.60 17.98 17.66 17.51 17.12
36.71 36.72 31.86 30.12 25.78 23.37 29.83 31.52 36.58 38.26 28.70 32.56 32.73 33.04 34.08 34.60 31.55 35.47 37.41 36.86 36.29 36.75 34.11 33.32 33.27 32.40 31.54 26.32 25.01 25.31 24.47 24.85 25.09 24.63 23.67 21.84 21.44 19.88 18.52 18.26 17.10 18.18 18.40 16.60
25.72 29.61 27.23 27.69 25.99 29.74 28.87 31.47 35.35 26.73 26.20 32.14 33.18 33.35 34.10 32.23 33.97 35.71 35.56 34.95 35.43 34.47 33.22 30.75 29.37 26.99 25.84 23.71 23.45 22.47 21.41 23.25 22.57 22.25 20.42 19.76 20.08 18.96 18.76 17.45 17.25 17.56 17.19 17.04
19.80 17.47 20.69 22.75 22.72 22.92 29.74 30.62 25.59 29.55 32.64 32.25 31.78 31.27 30.63 32.20 32.87 32.99 32.97 33.02 32.60 32.76 34.03 31.44 25.70 24.88 23.24 24.11 24.59 22.54 20.89 20.49 19.35 19.02 18.13 18.19 17.92 17.88 17.19 15.32 14.58 16.54 15.79 14.16
16.83 22.30 16.67 18.16 19.30 26.00 30.57 25.90 28.99 32.24 32.03 29.33 28.90 29.27 30.85 30.19 29.89 30.73 30.85 31.59 32.04 32.99 32.86 33.06 26.83 25.19 21.41 22.45 24.39 22.78 21.27 20.29 18.66 17.38 16.65 16.06 16.06 15.26 15.50 14.80 13.90 12.98 13.34 12.47
18.11 22.90 18.41 16.70 22.05 22.72 25.37 28.84 30.77 29.31 27.29 27.98 27.27 26.53 27.71 27.62 28.58 29.04 29.86 30.90 31.28 32.32 32.70 33.84 33.60 29.50 26.08 22.92 22.99 25.41 21.28 20.09 18.54 17.07 15.69 13.90 13.51 12.64 12.84 14.48 13.50 12.76 11.78 11.61
19.43 20.83 15.56 16.23 20.66 22.90 25.20 26.64 25.16 25.49 24.72 23.42 23.06 22.79 24.24 25.48 25.75 26.79 27.08 27.79 28.89 29.41 30.82 31.96 31.55 28.74 27.61 23.79 22.38 22.68 20.27 19.41 17.64 16.23 13.48 13.31 13.67 11.84 11.63 13.24 12.97 12.76 13.94 14.85
21.47 19.04 16.25 14.49 22.83 19.10 20.89 22.24 23.22 17.73 17.41 18.45 18.93 19.34 20.23 20.15 19.80 21.06 21.27 23.46 25.43 26.49 28.42 29.23 27.89 28.53 29.31 27.92 24.11 22.19 20.44 18.54 17.42 15.13 13.39 13.01 12.45 11.99 11.87 11.20 12.06 17.75 17.17 19.82
MSLP
1014.15 1014.46 1013.91 1012.73 1012.94 1012.70 1013.01 1012.85 1012.50 1011.27 1011.12 1011.38 1010.83 1010.21 1009.34 1008.74 1008.93 1008.80 1008.42 1007.83 1007.64 1006.85 1005.61 1006.45 1006.92 1007.64 1008.72 1009.88 1010.94 1011.87 1012.94 1013.95 1014.87 1016.01 1016.89 1017.73 1017.98 1018.41 1018.81 1018.89 1019.11 1019.63 1020.04 1020.49
1014.00 1013.41 1012.67 1012.76 1013.00 1013.08 1013.01 1012.52 1012.04 1011.00 1010.49 1010.90 1010.31 1009.46 1008.76 1008.42 1007.54 1006.99 1006.86 1006.60 1006.16 1005.60 1005.52 1005.59 1006.11 1007.02 1007.68 1008.65 1009.86 1011.20 1012.19 1013.23 1013.97 1014.79 1015.65 1016.49 1017.22 1017.93 1018.25 1018.62 1019.01 1019.33 1019.81 1020.27
1012.59 1011.94 1012.03 1012.57 1012.64 1013.03 1012.03 1012.27 1011.46 1011.18 1010.94 1010.42 1010.00 1008.47 1008.01 1006.87 1006.35 1005.99 1005.31 1004.87 1004.75 1004.56 1004.83 1004.97 1005.80 1006.21 1007.03 1008.04 1008.97 1010.02 1011.04 1012.02 1012.77 1013.75 1015.05 1016.17 1017.17 1017.69 1018.09 1018.19 1018.53 1018.84 1019.36 1019.93
1012.46 1011.42 1011.61 1011.96 1012.16 1012.09 1010.49 1011.03 1011.28 1011.42 1011.85 1010.94 1010.28 1006.19 1006.55 1006.01 1005.61 1005.11 1004.18 1003.92 1003.21 1003.43 1003.86 1004.18 1004.96 1005.84 1006.21 1006.82 1008.01 1009.10 1010.26 1011.25 1012.15 1013.29 1014.35 1015.01 1015.21 1015.78 1015.64 1016.36 1017.45 1018.25 1018.83 1019.44
1011.34 1010.84 1010.91 1011.32 1010.68 1011.34 1009.82 1010.85 1011.05 1011.58 1011.92 1011.45 1010.72 1009.89 1005.54 1005.34 1005.11 1004.21 1003.25 1002.83 1002.40 1002.39 1002.82 1003.43 1003.96 1004.39 1005.17 1006.34 1007.24 1008.38 1009.51 1010.59 1011.33 1012.27 1012.83 1013.77 1014.57 1015.22 1015.80 1016.69 1017.48 1017.93 1018.47 1018.94
1011.36 1011.28 1010.90 1010.41 1010.72 1010.77 1010.74 1011.20 1011.65 1012.02 1012.47 1011.05 1010.38 1009.64 1001.63 1004.16 1003.41 1002.91 1002.44 1001.94 1001.71 1001.36 1001.76 1002.60 1003.32 1004.34 1005.40 1006.36 1007.21 1008.04 1008.82 1009.65 1010.44 1011.28 1011.91 1012.54 1013.38 1014.48 1015.30 1015.98 1016.90 1017.63 1018.17 1018.65
1010.99 1010.31 1009.82 1010.13 1011.07 1011.39 1011.45 1011.98 1012.79 1013.18 1013.27 1009.62 1008.23 1007.79 1002.22 1002.80 1002.29 1001.61 1001.16 1000.78 1000.53 1000.65 1001.74 1002.61 1003.34 1004.27 1005.24 1006.06 1006.64 1007.34 1008.08 1008.83 1009.52 1010.27 1011.02 1011.65 1012.36 1013.37 1014.19 1014.80 1015.60 1016.60 1017.41 1017.95
1011.80 1009.26 1009.49 1008.99 1009.62 1009.66 1010.58 1011.28 1012.44 1012.28 1011.57 1008.68 1007.62 1004.87 1002.51 1001.30 1000.70 1000.39 999.95 999.72 999.76 1000.85 1001.42 1001.85 1002.48 1003.34 1004.18 1005.22 1006.19 1006.81 1007.60 1008.26 1008.89 1009.46 1010.18 1011.08 1011.84 1012.44 1013.08 1013.73 1014.35 1015.18 1015.87 1016.48
1010.87 1009.07 1008.47 1008.75 1009.07 1009.40 1010.14 1010.38 1009.56 1010.97 1010.72 1009.95 1005.65 1003.46 1001.54 1000.98 1000.65 1000.30 999.85 999.65 1000.38 1000.37 1001.29 1001.75 1002.53 1003.24 1003.66 1004.44 1005.09 1005.75 1006.66 1007.30 1008.05 1008.51 1009.32 1010.11 1011.01 1011.66 1012.28 1012.96 1013.79 1014.34 1014.93 1015.65
1009.55 1009.41 1008.72 1008.94 1009.31 1009.44 1009.48 1009.58 1010.05 1010.19 1010.00 1008.58 1005.09 1003.16 1001.14 1001.13 1000.48 999.55 1000.04 1000.41 1000.51 1000.78 1001.23 1001.67 1002.34 1002.82 1003.29 1003.84 1004.45 1005.34 1005.69 1006.18 1006.82 1007.79 1008.52 1008.94 1009.77 1010.56 1011.50 1012.57 1013.22 1014.03 1014.66 1015.11
1010.14 1010.46 1009.02 1010.02 1009.16 1009.08 1009.60 1009.58 1009.25 1008.98 1008.16 1006.30 1004.61 1002.00 1000.83 999.92 999.28 999.75 999.57 999.74 1000.14 1000.26 1000.81 1001.33 1001.62 1002.25 1002.87 1003.81 1004.23 1004.22 1005.01 1005.49 1006.10 1006.60 1007.33 1008.22 1008.80 1009.51 1010.53 1011.50 1012.54 1013.33 1014.32 1015.05
1010.20 1010.79 1010.93 1009.95 1008.59 1007.88 1007.68 1007.38 1007.49 1007.62 1006.92 1006.01 1004.68 1002.58 998.75 999.74 999.53 999.42 998.81 999.35 999.96 1000.18 1000.08 1000.36 1000.96 1001.93 1002.64 1002.97 1003.64 1003.56 1004.13 1004.66 1004.87 1005.80 1006.60 1007.34 1008.45 1009.14 1009.91 1010.81 1011.67 1012.69 1013.90 1014.98
1010.29 1010.51 1010.47 1009.90 1008.98 1007.74 1006.96 1006.32 1006.54 1006.16 1006.54 1005.83 1004.87 1002.41 999.52 999.98 999.46 999.31 999.70 999.76 999.43 999.76 999.89 1000.09 1000.71 1001.14 1001.38 1001.85 1002.37 1002.58 1002.90 1003.14 1003.98 1005.06 1005.92 1006.86 1007.78 1008.64 1009.20 1010.01 1011.11 1012.05 1013.26 1014.32
1009.37 1009.72 1009.15 1008.43 1007.17 1006.10 1006.78 1006.48 1005.59 1005.74 1005.83 1004.58 1003.72 1001.60 1000.50 998.89 998.66 998.24 998.86 998.89 998.40 998.53 998.76 999.38 999.58 1000.09 1000.61 1001.01 1001.43 1001.79 1002.03 1002.27 1003.09 1004.11 1005.02 1005.81 1006.70 1007.44 1008.49 1009.49 1010.42 1011.48 1012.54 1013.80
1009.12 1008.12 1008.09 1007.01 1006.50 1005.62 1004.59 1005.14 1004.03 1004.50 1003.89 1004.05 1001.92 1001.82 1000.25 997.12 997.98 997.47 997.77 997.21 997.53 997.67 998.10 998.34 998.90 999.20 999.45 999.66 999.82 1000.26 1000.58 1001.23 1002.05 1003.00 1003.93 1004.64 1005.62 1006.83 1007.79 1008.96 1009.98 1010.91 1011.87 1013.08
1007.74 1006.40 1006.75 1005.79 1005.76 1005.49 1005.00 1004.24 1003.70 1002.93 1002.54 1001.61 1001.34 1000.32 998.11 997.32 997.12 996.38 995.66 996.11 997.22 997.26 997.29 997.49 997.75 997.93 998.00 998.28 998.36 998.77 999.52 1000.09 1000.92 1001.77 1002.65 1003.78 1005.04 1006.20 1007.15 1008.24 1009.39 1010.70 1011.71 1012.59
1006.76 1005.74 1005.52 1003.40 1004.01 1003.91 1003.18 1002.46 1001.23 1000.68 1000.43 999.95 999.09 997.23 996.81 996.64 996.58 995.27 994.93 996.65 996.69 995.99 996.03 996.24 996.63 996.95 996.94 997.14 997.23 997.72 998.18 999.03 1000.02 1000.76 1001.86 1003.11 1004.31 1005.47 1006.36 1007.48 1008.52 1009.94 1010.85 1011.91
1006.60 1005.38 1003.96 1001.75 1002.49 999.99 998.72 999.54 999.40 999.01 998.30 997.95 997.42 996.76 996.34 995.76 995.33 995.79 995.70 995.61 995.76 995.93 995.80 995.68 995.87 996.07 995.98 995.95 996.33 996.86 997.68 998.40 999.56 1000.38 1001.33 1002.43 1003.55 1004.94 1005.97 1007.12 1008.06 1009.03 1010.13 1011.03
1004.96 1004.54 1003.29 1002.05 1000.24 998.68 998.73 998.26 997.96 998.24 997.40 997.61 997.50 997.32 996.30 996.07 996.54 995.79 997.14 997.73 997.38 996.18 995.66 995.45 995.51 995.65 995.50 995.68 995.75 996.51 997.44 998.15 999.06 999.91 1000.43 1001.62 1002.75 1004.45 1005.47 1006.61 1007.79 1008.96 1009.99 1010.93
1004.64 1003.99 1003.01 1002.19 999.99 999.33 999.82 1000.06 999.77 998.33 998.42 1000.30 1000.48 1000.09 999.49 998.04 997.56 997.79 999.15 999.32 998.86 997.66 996.90 996.89 996.56 996.10 996.19 996.41 996.94 997.18 997.78 998.13 998.62 999.29 1000.22 1001.47 1002.42 1003.55 1004.80 1006.08 1007.39 1008.51 1009.87 1010.90
1005.42 1004.11 1003.17 1001.86 1000.70 1000.86 1001.99 1001.39 999.90 1000.52 1002.36 1002.56 1002.82 1001.86 1001.77 1000.74 1001.13 1001.07 1000.49 1000.03 999.58 998.64 998.08 997.34 997.39 997.64 997.58 997.44 997.93 998.10 998.62 998.99 998.99 999.56 1000.38 1001.47 1002.52 1003.52 1004.62 1005.84 1006.87 1007.77 1009.43 1010.63
1007.80 1005.97 1004.52 1003.06 1002.65 1002.28 1003.06 1002.64 1004.13 1004.01 1003.34 1003.46 1004.38 1003.07 1003.00 1002.85 1002.04 1001.34 1000.87 1000.09 999.09 998.39 997.84 997.68 998.10 997.78 997.68 998.03 998.08 998.42 998.67 999.47 1000.17 1000.65 1001.06 1002.07 1002.82 1003.46 1004.54 1005.64 1007.05 1007.57 1008.60 1009.95
1009.32 1007.98 1007.83 1008.10 1005.44 1004.78 1005.23 1005.31 1004.28 1004.03 1004.16 1004.55 1003.92 1002.63 1003.24 1002.57 1001.24 1001.20 1000.50 1000.25 999.48 998.93 998.24 997.89 998.05 997.84 997.84 998.43 998.10 998.55 998.89 999.19 1000.56 1001.29 1001.59 1002.18 1003.22 1003.87 1004.70 1005.32 1006.77 1007.48 1008.41 1009.36
1009.90 1008.86 1008.07 1007.77 1006.29 1005.77 1005.35 1004.94 1004.92 1005.13 1005.27 1004.55 1004.63 1004.85 1004.36 1002.76 1001.66 1001.47 1001.20 1001.17 1000.14 999.35 998.41 997.91 997.39 997.32 997.15 998.03 998.15 998.10 998.31 998.20 999.86 1000.89 1001.79 1002.53 1002.80 1003.78 1004.86 1005.30 1006.02 1007.04 1007.86 1008.25
1010.22 1009.36 1008.24 1007.14 1006.39 1005.59 1005.56 1005.65 1006.08 1005.73 1005.65 1005.97 1005.91 1005.20 1004.26 1003.83 1003.08 1002.83 1001.49 1001.18 1000.62 999.53 998.34 997.78 997.34 997.22 996.46 996.55 997.27 997.35 996.99 998.51 999.10 999.75 1000.63 1001.95 1002.97 1003.97 1004.62 1005.10 1004.61 1005.47 1007.03 1007.16
1009.68 1008.98 1008.41 1007.12 1007.21 1007.46 1006.29 1006.47 1006.49 1006.75 1007.06 1007.14 1006.63 1005.86 1005.54 1005.07 1004.58 1003.62 1002.83 1001.46 1000.86 1000.03 998.83 997.48 997.57 996.62 996.62 995.88 995.91 996.37 997.11 997.18 998.62 999.44 999.88 1000.22 1001.48 1002.98 1003.87 1003.80 1004.96 1005.55 1005.31 1006.77
Wind_Speed
6 5 12 24 16 9 5 7 7 16 9 7 16 18 20 18 11 13 19 18 15 20 20 10 17 18 17 16 18 20 19 17 13 9 9 7 9 5 4 5 7 7 6 6
3 13 18 6 7 13 11 15 14 12 13 10 12 19 18 11 16 16 16 17 19 20 8 10 12 15 20 20 19 19 19 18 15 12 10 5 5 3 3 4 6 7 8 7
19 9 16 14 12 9 18 13 20 18 11 6 9 13 13 12 15 13 17 19 18 20 12 10 12 18 17 20 21 21 21 20 18 14 9 4 4 3 4 5 6 6 8 7
11 13 13 7 8 14 23 11 11 8 3 15 6 22 9 8 15 13 19 18 21 15 11 9 12 15 19 19 19 20 19 20 17 15 13 17 11 11 10 10 7 6 9 8
10 3 8 14 24 10 22 6 9 2 5 6 5 10 5 9 10 12 16 18 19 14 12 12 16 20 19 17 19 18 18 18 17 17 18 14 12 8 4 3 9 8 7 8
12 1 4 8 2 6 2 1 0 2 2 15 10 11 5 8 13 7 15 16 16 16 10 9 11 11 12 11 14 15 18 18 17 18 19 20 18 9 7 9 9 8 7 6
4 15 9 6 4 2 3 5 5 5 1 15 12 13 21 7 6 12 15 16 18 6 8 10 12 14 13 15 16 15 18 19 18 19 19 18 18 15 15 12 11 11 8 6
4 16 12 9 21 11 11 14 8 9 9 19 5 11 8 13 13 12 15 15 7 9 9 11 14 15 15 17 16 17 16 17 18 18 18 15 15 11 11 12 10 11 11 10
6 12 1 3 1 10 4 7 14 3 2 3 11 15 10 4 10 10 15 6 8 10 10 10 8 11 13 15 18 19 18 17 16 18 16 16 14 16 13 12 10 10 9 8
8 12 8 1 1 2 6 1 2 2 4 9 17 13 18 15 18 17 8 12 10 7 8 8 9 12 11 12 13 14 16 19 17 16 15 14 15 16 12 11 13 11 9 10
5 6 19 4 8 9 1 5 6 2 5 16 19 19 4 11 9 9 9 11 10 10 10 9 10 9 8 8 12 15 15 16 16 15 15 15 15 14 11 13 12 12 10 11
4 3 4 13 8 7 6 11 14 11 13 6 10 14 27 15 8 7 5 8 7 7 9 8 9 8 9 14 13 16 14 15 18 15 14 15 12 12 13 13 12 11 12 9
8 4 5 4 15 6 7 9 8 8 1 14 17 20 23 17 14 5 8 9 7 8 8 7 8 11 14 13 13 15 15 18 15 14 14 13 13 14 15 13 12 12 12 11
12 10 13 16 17 8 11 13 7 11 13 23 22 28 31 32 29 27 24 24 27 13 10 9 9 8 9 10 12 14 15 16 14 14 15 15 16 16 14 13 13 13 12 12
11 12 19 28 33 32 30 33 32 25 27 25 28 20 27 35 23 26 24 22 12 11 8 9 9 9 12 14 14 14 15 13 14 16 15 16 14 13 13 14 14 13 13 11
10 18 18 21 23 29 33 33 33 31 31 25 29 32 38 38 35 35 35 28 16 17 17 17 11 14 14 13 16 15 15 14 15 16 17 14 14 14 15 15 14 13 12 12
17 11 17 29 22 24 23 34 35 35 28 26 28 35 36 33 30 32 30 19 17 20 17 11 14 14 13 11 13 13 15 11 15 15 14 14 16 16 16 15 15 15 14 13
21 20 14 20 17 26 22 22 31 36 35 33 32 31 29 31 30 24 20 21 20 16 12 9 8 11 11 9 8 7 9 13 14 14 14 15 16 16 15 15 15 15 14 14
21 16 11 11 16 19 8 18 23 25 34 31 30 26 28 26 25 26 12 18 18 17 9 9 6 7 8 9 7 8 9 11 13 14 15 16 17 16 16 16 15 13 12 11
13 17 15 16 19 17 5 17 23 22 17 16 16 18 14 11 6 6 16 15 18 18 11 10 9 6 7 6 2 6 7 11 14 14 13 13 15 16 17 16 15 13 12 11
11 11 20 21 22 14 12 15 14 6 5 9 11 10 12 7 8 14 19 18 16 13 12 8 8 5 6 1 3 2 3 9 3 9 11 12 13 14 14 14 12 13 12 11
12 6 12 10 18 21 27 5 14 12 3 9 13 9 10 11 13 13 18 19 18 17 16 9 6 6 4 4 5 5 6 5 5 7 10 11 11 11 11 15 11 13 13 13
9 5 6 5 10 22 10 16 20 13 12 9 12 14 14 16 15 18 17 17 14 14 11 10 7 8 4 4 4 6 4 9 8 8 10 11 10 10 11 14 13 11 12 11
7 12 8 16 6 27 23 16 8 13 12 12 10 13 14 17 16 17 14 14 13 14 13 12 10 10 9 7 7 7 8 14 13 12 11 9 12 12 11 9 11 11 11 11
10 15 8 17 17 19 15 15 11 15 9 10 15 16 16 15 17 17 17 17 16 16 15 12 11 10 12 6 10 11 13 14 13 13 13 12 10 12 12 10 12 12 10 12
11 15 13 18 20 10 20 15 10 12 14 13 14 16 17 16 19 19 18 18 17 17 16 14 14 13 16 11 11 11 12 15 13 12 11 13 12 12 10 12 11 16 17 18
Wind_Direction
215 152 204 223 206 233 221 258 251 267 260 186 232 240 252 254 252 241 252 255 245 244 247 208 204 189 178 175 169 172 168 174 165 169 172 176 187 181 183 181 167 169 168 168
253 220 227 244 205 232 245 257 261 271 260 187 248 244 257 241 247 241 236 244 244 247 237 226 192 180 179 174 173 171 174 173 179 178 181 175 161 183 165 169 172 176 169 172
221 218 218 222 239 263 247 251 260 262 293 246 287 270 240 243 243 252 257 250 255 249 225 230 183 188 176 175 174 176 177 179 182 177 160 106 107 98 171 195 186 186 169 173
245 235 231 192 216 204 258 218 247 253 254 271 142 291 220 244 242 238 246 252 252 243 222 215 186 182 183 183 174 174 177 181 183 169 175 187 195 195 203 193 179 173 169 171
239 221 206 233 236 200 264 222 240 210 235 318 191 277 166 195 240 244 242 245 256 251 211 198 189 190 189 173 175 176 177 180 179 181 186 191 204 203 144 136 170 177 175 174
244 335 239 212 148 195 167 138 172 54 81 263 178 205 156 187 213 230 242 255 252 251 215 203 194 173 174 166 172 173 176 184 182 184 189 195 199 180 161 171 178 184 181 180
310 229 219 149 189 277 168 86 303 314 2 255 180 221 250 288 255 211 226 238 242 228 167 168 163 173 170 177 179 180 180 187 186 191 196 195 197 186 189 182 184 177 177 185
239 286 163 185 205 194 199 199 179 212 249 275 129 248 252 215 236 230 229 230 202 179 187 186 180 180 181 184 184 186 187 189 193 194 199 197 195 191 197 190 181 186 187 184
214 263 289 153 142 158 183 174 216 330 84 3 265 271 291 285 268 260 240 243 216 196 199 189 181 189 185 186 189 187 191 200 198 199 195 198 194 197 199 189 182 184 176 169
232 265 223 169 165 345 181 228 104 216 202 245 268 270 273 283 270 256 274 227 231 219 206 199 198 200 198 193 186 191 195 200 198 200 203 197 194 198 193 177 185 181 172 159
10 292 274 108 194 180 128 259 246 296 199 249 261 271 216 253 248 253 244 235 212 212 212 206 209 208 192 184 192 195 197 197 201 195 195 195 195 189 175 183 187 179 162 162
145 199 253 273 278 233 258 235 230 237 254 234 269 262 261 273 280 260 333 273 254 230 220 207 203 191 190 202 201 200 201 203 207 200 193 197 183 175 178 186 175 159 162 159
151 210 233 264 291 248 211 198 217 243 241 242 257 261 271 283 280 283 294 273 275 253 252 231 207 207 213 211 206 205 203 209 204 194 189 187 184 183 188 179 162 157 152 158
160 195 205 238 243 271 265 272 251 236 249 253 243 260 271 268 265 274 272 251 261 262 251 230 226 219 207 212 211 210 213 209 196 189 188 188 189 188 181 166 161 160 162 160
191 236 225 234 242 245 246 254 255 250 244 243 253 245 258 264 275 270 272 265 257 261 239 234 240 230 225 218 215 215 215 197 188 189 191 195 184 175 162 162 163 160 161 159
206 242 240 238 229 233 244 251 255 255 254 253 253 262 259 262 261 264 266 267 272 260 256 254 233 234 235 217 217 213 211 197 183 188 193 180 168 165 166 165 163 160 157 155
235 222 229 249 229 235 241 233 238 247 246 242 244 239 250 261 260 262 276 286 261 255 247 229 226 228 239 229 215 210 208 170 181 185 179 169 166 170 171 164 160 167 165 157
268 262 244 246 247 239 236 224 227 239 247 253 249 256 251 254 262 263 269 273 283 277 259 251 246 246 233 229 220 199 158 173 178 176 170 167 168 170 166 164 168 165 163 163
227 242 257 263 249 257 249 220 230 233 248 254 266 263 257 265 265 275 343 358 323 307 274 248 282 254 264 248 210 165 160 165 168 178 175 172 167 166 165 170 167 162 160 160
248 242 255 271 275 266 83 354 327 270 259 8 12 20 3 342 249 292 7 352 341 345 355 348 349 346 339 328 91 145 171 166 185 182 176 166 165 166 169 164 163 163 165 159
295 287 263 255 260 260 9 336 302 231 41 4 344 354 344 359 11 334 328 323 325 324 328 335 346 331 301 90 93 113 137 214 154 142 148 159 166 164 163 155 161 151 154 149
285 292 284 290 274 267 358 8 344 351 301 7 321 343 333 312 306 311 307 306 311 315 317 321 293 278 253 192 155 175 190 122 116 136 147 158 158 156 157 154 156 158 154 153
290 4 322 302 313 316 326 307 301 304 320 318 314 325 304 298 309 305 303 303 302 302 301 305 275 283 254 254 201 199 165 137 137 151 162 157 153 153 161 158 160 157 158 158
284 295 293 314 296 301 302 322 326 340 333 331 355 334 326 321 325 312 308 301 303 303 299 297 294 283 273 202 213 224 172 156 161 171 171 163 161 160 166 165 163 166 173 168
264 299 285 287 284 298 298 317 340 332 358 351 330 319 311 310 304 300 303 296 292 293 293 287 279 269 260 207 218 211 175 173 178 171 165 170 171 173 170 183 173 167 184 188
256 261 269 279 291 308 303 328 328 353 332 323 316 316 311 310 301 302 297 299 299 292 293 291 280 268 273 255 233 209 192 176 175 180 180 175 175 176 186 170 169 182 164 177